Powrót do katalogu

USA 428

AktywnyMilitariaVLEO
NORAD 61651·PAYLOAD·🇺🇸 United States

Wystrzelony Oct 24, 2024 z Vandenberg Space Force Base

Loading…

Następne Przeloty (najbliższe 24 godziny)

TLE

NieaktualneSource: Mike McCants

Epoka: Aug 11, 2026, 20:29 UTC

1 61651U 24192H   26223.85358817 0.00000000  00000-0  00000-0 0    00
2 61651  70.0200 127.1033 0004000 245.9808 114.0192 14.96713205    03

Śledź USA 428 w czasie rzeczywistym z AllMySat

Download on the App Store